Temperature
12 12 12 12 12 12 12 12 12 11 12 12 12 12 12 12 12 12 12 12 12 12 12 12 12 12 12 12 12 12 12 11 11 11 11 11 11 11
12 12 12 12 11 12 11 11 11 11 11 11 12 12 12 11 12 12 12 11 12 12 12 12 12 11 12 12 11 11 11 11 11 11 11 11 11 11
11 11 11 11 11 11 11 11 11 11 11 11 11 11 11 11 11 11 11 11 11 11 11 11 11 11 11 11 11 11 11 11 11 11 11 11 11 11
11 11 11 11 11 11 11 11 11 11 11 11 11 11 11 11 11 11 11 11 11 11 11 11 11 11 11 11 11 11 11 11 11 11 10 10 10 10
11 11 11 11 11 11 11 11 11 10 10 10 10 10 10 10 10 10 11 11 11 11 11 11 11 11 11 11 11 11 11 10 10 10 10 10 10 10
10 10 10 10 10 10 10 10 10 10 10 10 10 10 10 10 10 10 10 10 10 11 11 10 11 10 10 11 11 11 10 10 10 10 10 10 10 10
10 10 10 10 10 10 10 10 10 10 10 10 10 10 10 10 10 10 10 10 10 10 10 10 10 10 10 10 10 10 10 10 10 10 10 10 10 10
10 9 9 9 9 9 9 9 9 9 9 9 9 9 9 9 9 9 9 9 9 10 10 10 10 10 10 10 10 10 10 10 10 10 10 10 10 9
9 9 9 9 9 9 9 9 9 9 9 9 9 9 9 9 9 9 9 9 9 9 9 9 9 9 9 9 9 9 9 9 9 9 9 9 9 9
9 9 9 9 9 9 9 9 9 8 8 8 8 8 8 8 8 8 8 8 8 8 8 8 9 9 9 9 9 9 9 9 9 9 9 9 9 9
8 8 8 8 8 8 8 8 8 8 8 8 8 8 8 8 8 8 8 8 8 8 8 8 8 8 9 9 9 9 9 9 9 9 9 9 9 9
8 8 8 8 8 8 8 8 8 8 7 7 8 8 8 8 8 7 8 7 7 7 8 8 8 7 8 8 8 8 8 8 8 8 8 8 8 8
7 7 7 7 7 7 7 7 7 7 7 7 7 7 7 7 7 7 7 7 7 7 7 7 7 7 7 7 8 8 8 8 8 8 8 8 8 8
6 7 7 7 7 7 7 7 7 6 6 6 6 7 7 7 7 7 7 7 7 7 7 7 7 7 7 7 7 7 7 7 7 8 8 8 8 8
6 6 6 6 6 6 6 6 6 6 6 6 6 6 6 6 6 6 6 6 6 6 6 6 6 6 6 6 6 6 7 7 7 7 7 7 7 7
5 6 6 6 6 6 6 6 6 6 6 5 5 5 5 5 5 5 6 6 6 6 6 6 6 6 6 6 6 6 6 6 6 6 6 7 7 7
5 5 5 5 5 5 5 5 5 5 5 5 5 5 5 5 5 5 5 5 5 5 5 5 5 5 5 5 5 5 5 5 6 6 6 6 6 6
5 5 5 5 5 5 5 5 5 5 5 4 4 4 4 4 4 4 4 4 5 5 5 5 5 5 5 5 5 5 5 5 5 5 5 5 6 6
4 4 4 4 4 4 4 4 4 4 4 4 4 4 4 4 4 4 4 4 4 4 4 4 4 4 4 4 4 4 4 4 5 5 5 5 5 5
4 4 4 4 4 4 4 4 3 3 3 4 3 3 3 3 3 3 3 3 3 3 3 4 4 4 3 3 3 4 4 4 4 4 4 5 5 5
3 3 3 3 3 3 3 3 3 3 3 3 3 3 3 3 3 3 3 3 3 3 3 3 3 3 3 3 3 3 3 3 3 3 4 4 4 4
3 3 3 3 3 3 3 3 2 2 3 2 2 2 2 2 2 2 2 2 2 2 2 2 2 2 2 2 2 3 3 3 3 3 3 3 3 3
3 3 3 3 3 2 2 2 2 2 2 2 2 2 2 2 2 2 2 1 1 1 1 1 2 2 2 2 2 2 2 2 2 3 3 3 3 3
Wind_Speed
1 1 1 1 1 1 2 3 3 2 2 2 2 2 3 2 3 2 2 2 2 1 1 1 1 0 1 2 2 1 1 1 1 1 1 1 2 2
1 1 1 1 1 1 1 1 2 3 2 2 3 2 2 2 3 2 2 2 2 2 2 1 1 1 1 2 2 2 2 2 2 2 2 1 1 1
0 1 1 1 0 1 1 1 1 2 3 2 2 2 1 2 3 3 2 2 2 3 2 2 2 3 2 2 2 2 3 3 3 2 2 2 1 1
1 1 1 1 1 0 1 1 2 2 3 2 1 1 1 2 2 2 2 2 2 3 3 3 4 3 3 3 3 3 3 4 4 3 3 3 2 2
1 1 1 1 1 1 1 1 1 2 2 2 2 1 1 1 1 2 2 2 3 3 3 3 3 3 3 3 4 4 4 4 4 5 4 4 4 3
2 2 2 2 2 2 1 1 1 1 2 2 1 1 1 1 0 1 2 2 2 2 2 2 2 2 3 4 4 5 5 5 5 5 5 5 5 5
1 2 3 3 3 3 2 2 2 2 2 2 1 1 1 0 1 1 1 2 2 1 2 2 2 2 2 3 5 5 6 6 6 6 6 7 6 5
2 2 3 2 3 3 3 3 4 3 3 3 2 2 3 3 2 1 1 1 2 1 1 2 1 2 3 3 4 5 6 6 7 7 7 7 7 6
2 2 2 2 2 1 2 2 2 3 4 4 4 4 4 4 3 2 2 2 3 2 1 2 1 3 3 4 5 5 5 6 6 7 7 7 7 7
2 2 2 2 2 2 2 1 1 2 3 3 4 5 5 4 5 5 4 2 1 1 1 2 2 3 3 3 4 4 5 5 6 6 6 6 6 7
2 1 1 2 3 1 2 2 1 2 3 3 3 3 3 4 4 2 2 1 2 2 1 1 2 2 2 2 3 3 4 4 5 5 5 6 7 7
2 2 3 3 3 1 3 3 3 3 2 1 2 3 2 1 4 4 4 3 2 2 2 2 1 0 2 2 2 2 3 4 5 5 6 5 5 5
2 2 3 3 3 2 2 3 4 3 2 2 1 2 2 1 1 3 4 4 3 3 3 3 2 2 2 2 2 2 2 2 3 4 5 5 6 5
3 3 2 2 2 2 2 2 2 2 1 1 1 2 2 2 3 3 4 4 4 3 3 4 3 3 3 2 2 2 2 2 2 2 3 4 5 6
2 2 1 1 2 2 2 1 1 1 1 1 2 3 3 3 2 2 2 2 2 2 1 3 3 3 3 3 2 1 2 2 2 2 2 3 3 3
2 1 1 1 1 1 1 1 1 1 1 2 2 2 2 1 1 1 1 1 1 2 2 2 3 3 3 2 2 2 2 2 2 3 3 3 3 4
1 1 1 1 1 1 1 1 1 0 1 1 1 1 1 1 1 1 1 1 2 2 1 1 1 1 2 2 2 3 2 2 3 2 2 3 4 5
1 0 1 1 1 1 1 1 1 1 1 1 1 1 1 1 1 1 1 1 2 2 2 1 0 0 1 2 3 3 3 3 3 2 2 3 4 4
1 1 1 2 2 2 1 1 2 2 1 1 1 1 1 1 1 1 1 1 2 2 2 1 1 1 2 4 3 4 4 3 2 2 3 3 4 5
1 2 2 2 2 2 2 2 2 1 1 1 1 1 1 1 1 1 1 2 2 2 2 1 2 3 4 4 3 3 5 4 3 4 4 3 4 4
2 2 3 3 2 2 2 2 1 1 1 1 1 1 1 1 1 2 2 2 2 2 2 3 4 5 3 1 2 3 2 5 5 3 3 3 2 2
3 3 3 3 2 2 2 1 1 1 1 1 1 1 1 1 2 2 2 2 2 2 3 3 3 1 1 3 4 4 3 3 5 6 5 4 2 3
3 3 3 2 2 2 2 2 2 2 2 2 2 2 2 2 2 2 2 2 2 3 3 3 2 1 2 3 3 3 3 3 3 2 3 5 6 6
Wind_Direction
215 213 220 239 207 196 174 166 162 193 246 273 284 307 318 326 328 334 324 329 321 306 299 313 328 256 227 215 189 170 169 187 175 163 149 124 114 109
193 174 219 251 225 197 191 183 169 173 207 241 244 279 317 325 333 331 300 300 302 288 262 249 250 249 251 226 205 206 204 202 200 163 149 147 125 112
205 181 233 222 183 236 194 170 171 160 197 252 258 285 312 324 335 345 326 314 304 281 259 246 245 234 230 223 215 212 209 198 179 174 184 178 169 159
239 203 251 224 212 222 188 194 196 185 181 225 275 278 280 292 316 334 336 319 301 284 267 256 246 235 226 219 204 188 184 192 189 188 192 194 195 202
224 215 231 168 228 257 201 200 209 190 174 189 240 256 293 321 341 330 329 336 325 314 284 266 252 235 220 211 206 203 202 201 197 199 206 214 219 231
243 233 227 197 204 209 199 202 186 169 166 173 217 265 283 309 7 325 321 324 309 324 327 310 293 261 238 225 218 215 212 210 206 208 210 212 218 228
277 263 245 219 215 196 189 180 168 170 174 178 204 244 270 301 250 245 260 299 296 298 325 310 315 323 298 253 234 226 222 222 218 216 216 216 219 223
276 288 278 253 251 230 219 190 170 171 186 192 200 218 235 231 225 227 233 300 286 282 282 282 282 269 292 277 243 231 231 228 219 216 217 217 219 221
263 277 287 283 262 246 225 203 203 188 179 184 197 218 221 220 203 209 217 221 240 250 210 263 254 252 276 278 258 233 230 224 213 214 216 216 218 223
255 245 261 279 261 219 179 178 219 235 215 201 214 225 222 208 202 209 215 229 271 260 171 234 257 261 282 281 268 240 226 221 215 212 213 216 222 228
268 257 253 261 283 226 165 188 243 277 271 242 240 252 243 215 186 159 160 173 246 249 206 217 251 268 270 265 273 259 234 223 222 221 224 226 228 227
279 276 267 270 278 233 187 193 227 254 265 288 303 308 300 248 196 189 191 193 214 237 218 204 229 275 290 277 278 287 259 245 236 233 232 234 230 217
262 269 270 277 282 258 221 216 234 232 216 219 265 302 308 279 236 218 206 197 200 226 211 189 204 206 227 274 293 279 251 256 254 247 242 236 227 209
246 257 266 282 291 290 263 264 259 238 189 187 242 275 278 276 263 243 230 222 218 220 209 189 196 201 204 235 265 286 278 268 241 245 267 261 240 227
252 259 276 303 306 317 317 320 305 171 169 210 248 257 260 263 266 263 252 240 246 280 228 212 205 199 197 211 233 255 276 272 243 240 250 246 239 238
308 320 0 28 49 7 352 350 22 195 195 229 259 268 277 276 272 266 249 228 225 281 309 269 221 190 203 219 213 249 250 264 268 247 243 246 255 250
312 9 26 38 35 356 345 341 348 338 267 266 260 284 300 305 301 299 253 209 207 235 269 312 302 233 215 201 223 247 257 270 278 247 230 252 253 251
87 199 224 217 228 240 260 302 309 290 276 269 260 255 268 278 301 315 288 233 237 236 236 240 298 358 319 274 224 233 244 259 280 264 235 241 261 261
141 234 242 236 238 243 240 247 264 278 275 251 271 277 270 278 289 291 286 280 277 278 267 235 201 190 235 268 264 220 232 261 275 271 253 248 256 265
223 236 243 248 246 242 241 246 263 294 313 305 298 300 304 303 299 289 276 271 274 287 305 291 239 226 229 246 258 257 237 235 239 259 267 268 271 285
239 244 244 238 241 244 245 240 242 255 267 263 284 300 306 315 306 310 303 297 287 280 282 283 270 265 241 216 262 277 272 251 242 251 255 254 274 289
240 241 245 242 238 239 244 242 241 255 265 263 263 264 267 267 275 283 291 307 302 291 288 293 303 288 201 228 256 268 282 297 282 273 260 239 224 244
242 238 237 238 236 237 240 239 240 252 254 256 256 251 248 260 267 270 275 276 291 300 307 306 307 283 252 247 260 269 281 290 286 275 274 286 279 282
Height
1521 1520 1520 1520 1520 1520 1521 1521 1522 1521 1521 1522 1522 1522 1522 1522 1522 1522 1522 1522 1523 1523 1523 1523 1524 1524 1524 1525 1525 1525 1525 1526 1526 1526 1527 1527 1528 1528
1518 1518 1517 1517 1517 1518 1518 1518 1519 1519 1519 1519 1519 1520 1520 1520 1520 1520 1520 1520 1520 1521 1521 1521 1521 1522 1522 1522 1523 1523 1524 1524 1525 1525 1525 1526 1526 1527
1516 1515 1515 1515 1515 1515 1515 1515 1516 1516 1516 1516 1517 1517 1517 1517 1517 1517 1517 1517 1518 1518 1518 1518 1519 1519 1519 1520 1520 1521 1521 1522 1522 1523 1524 1524 1525 1525
1513 1513 1512 1512 1512 1512 1512 1512 1513 1513 1513 1513 1514 1514 1514 1514 1514 1514 1514 1514 1515 1515 1515 1515 1516 1516 1517 1517 1518 1518 1519 1520 1520 1521 1522 1522 1523 1524
1510 1510 1509 1509 1509 1509 1509 1509 1510 1510 1510 1511 1511 1511 1511 1511 1511 1512 1511 1511 1512 1512 1512 1513 1513 1513 1514 1514 1515 1515 1516 1517 1518 1518 1519 1520 1521 1521
1507 1507 1507 1506 1506 1506 1506 1506 1506 1507 1507 1508 1508 1508 1509 1508 1508 1508 1508 1509 1509 1509 1509 1509 1510 1510 1511 1511 1511 1512 1513 1514 1514 1515 1516 1517 1518 1519
1504 1504 1504 1504 1503 1503 1503 1503 1504 1504 1504 1504 1505 1505 1505 1505 1505 1505 1505 1505 1505 1506 1506 1506 1506 1507 1507 1508 1508 1509 1509 1510 1510 1512 1513 1514 1515 1516
1500 1500 1501 1500 1500 1500 1500 1501 1501 1501 1500 1501 1501 1502 1502 1503 1503 1503 1503 1502 1502 1504 1503 1503 1503 1503 1504 1504 1505 1505 1505 1505 1506 1508 1509 1511 1512 1513
1497 1497 1497 1497 1497 1497 1497 1497 1497 1498 1498 1498 1498 1498 1499 1500 1500 1500 1500 1500 1500 1500 1500 1500 1500 1500 1501 1501 1501 1502 1502 1502 1502 1504 1506 1507 1509 1510
1494 1494 1494 1494 1494 1494 1494 1494 1494 1494 1494 1495 1495 1495 1496 1497 1497 1497 1497 1497 1497 1497 1497 1497 1496 1497 1497 1497 1498 1498 1499 1499 1500 1501 1503 1504 1505 1506
1491 1491 1491 1491 1491 1491 1491 1490 1490 1491 1491 1491 1492 1492 1492 1493 1493 1493 1493 1493 1492 1493 1493 1493 1493 1493 1493 1493 1494 1494 1495 1496 1497 1498 1499 1500 1502 1502
1488 1488 1488 1487 1488 1487 1487 1487 1487 1487 1487 1487 1488 1488 1488 1488 1489 1489 1489 1489 1489 1489 1489 1490 1489 1490 1489 1490 1490 1491 1491 1492 1493 1494 1495 1496 1497 1498
1484 1484 1484 1484 1484 1484 1484 1484 1484 1484 1484 1484 1484 1484 1484 1484 1484 1484 1484 1485 1485 1485 1486 1486 1486 1486 1487 1486 1486 1487 1487 1488 1489 1490 1491 1491 1492 1493
1481 1481 1481 1481 1481 1481 1481 1480 1481 1480 1480 1480 1480 1480 1480 1479 1479 1480 1480 1480 1481 1481 1482 1482 1482 1482 1482 1482 1482 1483 1483 1484 1484 1485 1486 1487 1488 1488
1478 1478 1478 1478 1478 1477 1477 1477 1477 1476 1476 1476 1476 1476 1476 1476 1475 1475 1476 1476 1476 1477 1477 1477 1478 1478 1478 1478 1478 1479 1479 1479 1480 1480 1481 1482 1482 1483
1475 1475 1475 1475 1474 1474 1474 1474 1473 1473 1473 1473 1473 1473 1472 1472 1471 1471 1471 1471 1472 1472 1473 1473 1473 1474 1473 1474 1475 1474 1475 1475 1475 1476 1477 1477 1478 1478
1472 1472 1471 1471 1471 1471 1471 1471 1470 1470 1470 1470 1469 1469 1468 1468 1467 1467 1467 1467 1467 1467 1468 1468 1469 1469 1469 1470 1470 1470 1470 1470 1471 1471 1472 1472 1472 1473
1469 1468 1468 1468 1468 1468 1468 1468 1467 1467 1467 1467 1466 1466 1465 1465 1464 1464 1464 1464 1463 1463 1464 1464 1465 1465 1465 1465 1466 1466 1466 1466 1466 1467 1467 1467 1467 1468
1466 1466 1466 1465 1465 1465 1465 1465 1464 1464 1464 1464 1463 1463 1463 1462 1462 1461 1461 1460 1460 1460 1460 1461 1461 1461 1460 1460 1460 1462 1462 1462 1462 1462 1462 1462 1462 1462
1463 1463 1463 1462 1462 1462 1462 1462 1462 1462 1461 1461 1461 1460 1460 1460 1459 1458 1458 1457 1457 1457 1457 1457 1457 1457 1456 1457 1456 1457 1458 1458 1457 1457 1457 1457 1458 1458
1460 1460 1460 1460 1459 1459 1459 1459 1459 1459 1459 1459 1458 1457 1457 1457 1456 1456 1455 1455 1454 1454 1453 1453 1453 1453 1453 1453 1453 1452 1453 1453 1453 1453 1453 1452 1452 1452
1457 1457 1457 1457 1457 1457 1457 1456 1456 1456 1456 1456 1455 1455 1454 1454 1454 1453 1452 1452 1451 1451 1450 1450 1449 1449 1448 1448 1447 1448 1448 1449 1449 1449 1449 1449 1447 1447
1454 1454 1454 1454 1453 1453 1453 1453 1453 1453 1453 1452 1452 1451 1451 1451 1450 1450 1450 1449 1448 1447 1446 1446 1445 1445 1444 1444 1444 1444 1444 1444 1444 1444 1444 1444 1444 1444